Location: Sternwarte ZA, Rosenfeld-Brittheim
(48.2889°N, 8.6789°E)
Time: 16:38:40
(UTC+02:00)

ISS - Pass Details

Date: 23 May 2017
Orbit: 401 x 407 km, 51.6° (Epoch: 23 September)

Event Time Altitude Azimuth Distance (km) Brightness Sun altitude
Exits shadow 23:51:24 24° 82° (E) 918 -2.2 -18.2°
Drops below altitude 10° 23:52:54 10° 73° (ENE) 1,492 -1.0 -18.3°
Enters shadow 01:13:47 -19° 260° (W) 5,201 1.8 -21.1°
Maximum altitude 01:26:15 51° 349° (N) 528 -3.0 -21.1°
